TimeGMT,TemperatureF,Dew PointF,Humidity,Sea Level PressureIn,VisibilityMPH,Wind Direction,Wind SpeedMPH,Gust SpeedMPH,PrecipitationIn,Events,Conditions,WindDirDegrees,DateUTC
2:50 AM,54,52,90,30.22,11,SSE,16.1,,,,Scattered Clouds,160,2012-11-14 02:50:00
5:50 AM,53,51,91,30.22,11,SSE,12.7,,,,Overcast,150,2012-11-14 05:50:00
8:50 AM,53,51,90,30.24,19,East,9.2,,,,Overcast,100,2012-11-14 08:50:00
8:50 AM,53.6,51.8,94,30.24,6.2,East,9.2,-,N/A,,Mostly Cloudy,100,2012-11-14 08:50:00
9:20 AM,53.6,50.0,88,30.24,6.2,ESE,10.4,-,N/A,,Scattered Clouds,110,2012-11-14 09:20:00
9:50 AM,55.4,48.2,77,30.24,6.2,ESE,10.4,-,N/A,,Partly Cloudy,110,2012-11-14 09:50:00
10:20 AM,55.4,48.2,77,30.24,-9999.0,ESE,11.5,-,N/A,,Clear,110,2012-11-14 10:20:00
10:50 AM,55.4,50.0,82,30.24,6.2,ESE,11.5,-,N/A,,Partly Cloudy,110,2012-11-14 10:50:00
11:20 AM,-9999,-9999,N/A,-9999,6.2,East,11.5,-,N/A,,Partly Cloudy,100,2012-11-14 11:20:00
11:50 AM,55,49,76,30.22,18,ESE,12.7,,,,,110,2012-11-14 11:50:00
11:50 AM,55.4,50.0,82,30.21,6.2,ESE,12.7,-,N/A,,Partly Cloudy,110,2012-11-14 11:50:00
12:20 PM,55.4,50.0,82,30.21,6.2,ESE,10.4,-,N/A,,Partly Cloudy,110,2012-11-14 12:20:00
12:50 PM,55.4,48.2,77,30.18,6.2,ESE,12.7,-,N/A,,Partly Cloudy,110,2012-11-14 12:50:00
1:20 PM,55.4,48.2,77,30.18,6.2,East,15.0,-,N/A,,Partly Cloudy,100,2012-11-14 13:20:00
2:20 PM,53.6,48.2,82,30.18,6.2,East,16.1,-,N/A,,Partly Cloudy,100,2012-11-14 14:20:00
2:50 PM,54,49,76,30.19,22,East,15.0,,,,Scattered Clouds,100,2012-11-14 14:50:00
2:50 PM,53.6,48.2,82,30.18,6.2,ESE,13.8,-,N/A,,Partly Cloudy,110,2012-11-14 14:50:00
3:20 PM,53.6,48.2,82,30.18,6.2,East,16.1,-,N/A,,Partly Cloudy,100,2012-11-14 15:20:00
3:50 PM,53.6,48.2,82,30.18,6.2,ESE,16.1,-,N/A,,Partly Cloudy,110,2012-11-14 15:50:00
4:20 PM,53.6,48.2,82,30.18,6.2,ESE,13.8,-,N/A,,Partly Cloudy,110,2012-11-14 16:20:00
4:50 PM,53.6,48.2,82,30.18,6.2,East,12.7,-,N/A,,Partly Cloudy,100,2012-11-14 16:50:00
5:20 PM,51.8,48.2,88,30.18,6.2,East,15.0,-,N/A,,Partly Cloudy,90,2012-11-14 17:20:00
5:50 PM,53,48,76,30.21,22,East,13.8,,,,Mostly Cloudy,90,2012-11-14 17:50:00
5:50 PM,51.8,48.2,88,30.21,6.2,East,13.8,-,N/A,,Partly Cloudy,80,2012-11-14 17:50:00
8:50 PM,52,48,81,30.22,17,ENE,12.7,,,,Mostly Cloudy,70,2012-11-14 20:50:00
11:50 PM,52,46,73,30.21,25,East,15.0,,,,Mostly Cloudy,90,2012-11-14 23:50:00